This is the latest recevied weather packets stored in our database for station/object KC2TER. If no packets are shown the sender has not sent any weather packets the latest 10 day(s).
| Time | Temp. | Humidity | Pressure | Rain* | Wind** | Luminosity | Snow |
|---|---|---|---|---|---|---|---|
| 1778174243 | 16.67° C | 50% | 1009.6 hPa | 0 mm | - | 834 W/m² | - |
| 1778173940 | 16.67° C | 52% | 1009.5 hPa | 0 mm | - | 803 W/m² | - |
| 1778173637 | 16.67° C | 49% | 1009.5 hPa | 0 mm | - | 793 W/m² | - |
| 1778173334 | 17.22° C | 49% | 1009.3 hPa | 0 mm | - | 782 W/m² | - |
| 1778173030 | 17.78° C | 50% | 1009.6 hPa | 0 mm | - | 781 W/m² | - |
| 1778172726 | 16.11° C | 51% | 1009.7 hPa | 0 mm | - | 781 W/m² | - |
| 1778172422 | 16.11° C | 53% | 1009.8 hPa | 0 mm | - | 696 W/m² | - |
| 1778172120 | 16.11° C | 54% | 1009.8 hPa | 0 mm | - | 794 W/m² | - |
| 1778171816 | 16.67° C | 54% | 1010.1 hPa | 0 mm | - | 776 W/m² | - |
| 1778171514 | 16.67° C | 53% | 1010.2 hPa | 0 mm | - | 755 W/m² | - |
| 1778171210 | 15.56° C | 54% | 1010.3 hPa | 0 mm | - | 792 W/m² | - |
| 1778170906 | 15.56° C | 53% | 1010.1 hPa | 0 mm | - | 784 W/m² | - |
| 1778170603 | 15.56° C | 54% | 1010.2 hPa | 0 mm | - | 720 W/m² | - |
| 1778170299 | 15.56° C | 55% | 1010.1 hPa | 0 mm | - | 648 W/m² | - |
| 1778169996 | 16.11° C | 55% | 1010.4 hPa | 0 mm | - | 736 W/m² | - |
| 1778169693 | 15.56° C | 54% | 1010.5 hPa | 0 mm | - | 743 W/m² | - |
| 1778169388 | 15.56° C | 57% | 1010.5 hPa | 0 mm | - | 748 W/m² | - |
| 1778169085 | 15.56° C | 58% | 1010.7 hPa | 0 mm | - | 740 W/m² | - |
| 1778168782 | 15° C | 56% | 1010.7 hPa | 0 mm | - | 730 W/m² | - |
| 1778168479 | 15° C | 58% | 1010.6 hPa | 0 mm | - | 716 W/m² | - |
| 1778168175 | 15° C | 58% | 1011 hPa | 0 mm | - | 721 W/m² | - |
| 1778167872 | 15° C | 58% | 1011.1 hPa | 0 mm | - | 769 W/m² | - |
| 1778167568 | 15° C | 57% | 1010.9 hPa | 0 mm | - | 262 W/m² | - |
| 1778167264 | 15° C | 57% | 1011.2 hPa | 0 mm | - | 756 W/m² | - |
| 1778166960 | 15° C | 58% | 1011 hPa | 0 mm | - | 704 W/m² | - |
* Rain latest hour (hover to see other rain measurements)
** Current wind speed in m/s (hover to see current wind gust speed)